When you browse on this site, cookies collect data to enhance your experience and personalize the content and advertising you see.
Visit our Privacy Policy to learn more. By continuing to use the site, you agree to this use of cookies and data.
  • In Portugal
  • List of Countries
  • For 7 days
  • Water Temperature
  • Weather Map
  • Weather Widgets
  • user-avatar
    Login

    Hourly Weather Shkoder

    Today, 24 October, Thursday

    Time Temperature Precipitation Wind Pressure Humidity
    00:00 +19°C° 0 mm 1 mps 742 mmHg 44%
    01:00 +19°C° 0 mm 1 mps 742 mmHg 44%
    02:00 +19°C° 0 mm 1 mps 742 mmHg 43%
    03:00 +19°C° 0 mm 1 mps 742 mmHg 43%
    04:00 +18°C° 0 mm 1 mps 742 mmHg 43%
    05:00 +19°C° 0 mm 1 mps 742 mmHg 43%
    06:00 +19°C° 0 mm 1 mps 742 mmHg 43%
    07:00 +19°C° 0 mm 1 mps 742 mmHg 43%
    08:00 +21°C° 0 mm 1 mps 742 mmHg 40%
    09:00 +24°C° 0 mm 1 mps 741 mmHg 36%
    10:00 +24°C° 0 mm 0 mps 741 mmHg 32%
    11:00 +26°C° 0 mm 1 mps 741 mmHg 32%
    12:00 +27°C° 0 mm 1 mps 741 mmHg 31%
    13:00 +28°C° 0 mm 1 mps 740 mmHg 30%
    14:00 +26°C° 0 mm 1 mps 740 mmHg 36%
    15:00 +25°C° 0 mm 1 mps 740 mmHg 41%
    16:00 +24°C° 0 mm 1 mps 739 mmHg 46%
    17:00 +23°C° 0 mm 1 mps 739 mmHg 48%
    18:00 +21°C° 0 mm 1 mps 740 mmHg 50%
    19:00 +20°C° 0 mm 1 mps 740 mmHg 52%
    20:00 +19°C° 0 mm 1 mps 740 mmHg 52%
    21:00 +19°C° 0 mm 1 mps 740 mmHg 52%
    22:00 +18°C° 0 mm 1 mps 740 mmHg 52%
    23:00 +18°C° 0 mm 1 mps 740 mmHg 51%

    Tomorrow, 25 October, Friday

    Time Temperature Precipitation Wind Pressure Humidity
    00:00 +18°C° 0 mm 1 mps 740 mmHg 49%
    01:00 +18°C° 0 mm 1 mps 740 mmHg 48%
    02:00 +18°C° 0 mm 1 mps 740 mmHg 47%
    03:00 +18°C° 0 mm 1 mps 740 mmHg 47%
    04:00 +16°C° 0 mm 1 mps 740 mmHg 46%
    05:00 +18°C° 0 mm 1 mps 740 mmHg 46%
    06:00 +18°C° 0 mm 1 mps 740 mmHg 46%
    07:00 +18°C° 0 mm 1 mps 741 mmHg 46%
    08:00 +20°C° 0 mm 1 mps 741 mmHg 42%
    09:00 +22°C° 0 mm 1 mps 741 mmHg 38%
    10:00 +24°C° 0 mm 1 mps 741 mmHg 34%
    11:00 +25°C° 0 mm 1 mps 741 mmHg 33%
    12:00 +26°C° 0 mm 1 mps 741 mmHg 32%
    13:00 +26°C° 0 mm 1 mps 740 mmHg 31%
    14:00 +25°C° 0 mm 1 mps 740 mmHg 36%
    15:00 +24°C° 0 mm 1 mps 740 mmHg 41%
    16:00 +23°C° 0 mm 1 mps 740 mmHg 46%
    17:00 +22°C° 0 mm 1 mps 741 mmHg 47%
    18:00 +21°C° 0 mm 1 mps 741 mmHg 48%
    19:00 +20°C° 0 mm 1 mps 742 mmHg 49%
    20:00 +18°C° 0 mm 2 mps 742 mmHg 48%
    21:00 +18°C° 0 mm 2 mps 742 mmHg 47%
    22:00 +18°C° 0 mm 2 mps 743 mmHg 46%
    23:00 +17°C° 0 mm 2 mps 743 mmHg 46%

    Day after tomorrow, 26 October, Saturday

    Time Temperature Precipitation Wind Pressure Humidity
    00:00 +17°C° 0 mm 2 mps 743 mmHg 46%
    01:00 +17°C° 0 mm 2 mps 743 mmHg 46%
    02:00 +17°C° 0 mm 2 mps 743 mmHg 47%
    03:00 +16°C° 0 mm 2 mps 743 mmHg 47%
    04:00 +16°C° 0 mm 2 mps 743 mmHg 48%
    05:00 +16°C° 0 mm 2 mps 743 mmHg 49%
    06:00 +16°C° 0 mm 2 mps 743 mmHg 49%
    07:00 +16°C° 0 mm 2 mps 743 mmHg 50%
    08:00 +19°C° 0 mm 2 mps 744 mmHg 45%
    09:00 +21°C° 0 mm 2 mps 744 mmHg 40%
    10:00 +25°C° 0 mm 1 mps 744 mmHg 34%
    11:00 +25°C° 0 mm 1 mps 744 mmHg 33%
    12:00 +26°C° 0 mm 1 mps 744 mmHg 31%
    13:00 +27°C° 0 mm 1 mps 743 mmHg 29%
    14:00 +26°C° 0 mm 1 mps 743 mmHg 34%
    15:00 +25°C° 0 mm 1 mps 743 mmHg 39%
    16:00 +24°C° 0 mm 1 mps 743 mmHg 44%
    17:00 +22°C° 0 mm 1 mps 743 mmHg 45%
    18:00 +21°C° 0 mm 1 mps 744 mmHg 47%
    19:00 +18°C° 0 mm 2 mps 744 mmHg 48%
    20:00 +18°C° 0 mm 2 mps 744 mmHg 47%
    21:00 +18°C° 0 mm 2 mps 744 mmHg 46%
    22:00 +18°C° 0 mm 2 mps 744 mmHg 44%
    23:00 +17°C° 0 mm 2 mps 744 mmHg 45%

    , 27 October, Sunday

    Time Temperature Precipitation Wind Pressure Humidity
    00:00 +17°C° 0 mm 2 mps 744 mmHg 45%
    01:00 +17°C° 0 mm 2 mps 744 mmHg 45%
    02:00 +17°C° 0 mm 2 mps 744 mmHg 45%
    03:00 +16°C° 0 mm 2 mps 744 mmHg 45%
    04:00 +16°C° 0 mm 2 mps 744 mmHg 45%
    05:00 +16°C° 0 mm 2 mps 744 mmHg 45%
    06:00 +16°C° 0 mm 2 mps 743 mmHg 45%
    07:00 +17°C° 0 mm 2 mps 743 mmHg 45%
    08:00 +20°C° 0 mm 1 mps 744 mmHg 41%
    09:00 +22°C° 0 mm 1 mps 744 mmHg 36%
    10:00 +25°C° 0 mm 1 mps 744 mmHg 32%
    11:00 +26°C° 0 mm 1 mps 743 mmHg 31%
    12:00 +26°C° 0 mm 1 mps 743 mmHg 31%
    13:00 +27°C° 0 mm 1 mps 742 mmHg 30%
    14:00 +26°C° 0 mm 1 mps 742 mmHg 36%
    15:00 +24°C° 0 mm 1 mps 742 mmHg 42%
    16:00 +23°C° 0 mm 1 mps 742 mmHg 48%
    17:00 +22°C° 0 mm 1 mps 742 mmHg 51%
    18:00 +20°C° 0 mm 1 mps 742 mmHg 53%
    19:00 +19°C° 0 mm 1 mps 742 mmHg 55%
    20:00 +19°C° 0 mm 1 mps 742 mmHg 54%
    21:00 +19°C° 0 mm 1 mps 742 mmHg 53%
    22:00 +18°C° 0 mm 1 mps 742 mmHg 52%
    23:00 +18°C° 0 mm 1 mps 741 mmHg 52%

    27 October, Sunday

    Time Temperature Precipitation Wind Pressure Humidity
    00:00 +17°C° 0 mm 2 mps 744 mmHg 45%
    01:00 +17°C° 0 mm 2 mps 744 mmHg 45%
    02:00 +17°C° 0 mm 2 mps 744 mmHg 45%
    03:00 +16°C° 0 mm 2 mps 744 mmHg 45%
    04:00 +16°C° 0 mm 2 mps 744 mmHg 45%
    05:00 +16°C° 0 mm 2 mps 744 mmHg 45%
    06:00 +16°C° 0 mm 2 mps 743 mmHg 45%
    07:00 +17°C° 0 mm 2 mps 743 mmHg 45%
    08:00 +20°C° 0 mm 1 mps 744 mmHg 41%
    09:00 +22°C° 0 mm 1 mps 744 mmHg 36%
    10:00 +25°C° 0 mm 1 mps 744 mmHg 32%
    11:00 +26°C° 0 mm 1 mps 743 mmHg 31%
    12:00 +26°C° 0 mm 1 mps 743 mmHg 31%
    13:00 +27°C° 0 mm 1 mps 742 mmHg 30%
    14:00 +26°C° 0 mm 1 mps 742 mmHg 36%
    15:00 +24°C° 0 mm 1 mps 742 mmHg 42%
    16:00 +23°C° 0 mm 1 mps 742 mmHg 48%
    17:00 +22°C° 0 mm 1 mps 742 mmHg 51%
    18:00 +20°C° 0 mm 1 mps 742 mmHg 53%
    19:00 +19°C° 0 mm 1 mps 742 mmHg 55%
    20:00 +19°C° 0 mm 1 mps 742 mmHg 54%
    21:00 +19°C° 0 mm 1 mps 742 mmHg 53%
    22:00 +18°C° 0 mm 1 mps 742 mmHg 52%
    23:00 +18°C° 0 mm 1 mps 741 mmHg 52%

    28 October, Monday

    Time Temperature Precipitation Wind Pressure Humidity
    00:00 +18°C° 0 mm 1 mps 741 mmHg 51%
    01:00 +16°C° 0 mm 1 mps 741 mmHg 51%
    02:00 +16°C° 0 mm 1 mps 741 mmHg 50%
    03:00 +16°C° 0 mm 1 mps 740 mmHg 50%
    04:00 +16°C° 0 mm 1 mps 740 mmHg 50%
    05:00 +16°C° 0 mm 1 mps 740 mmHg 49%
    06:00 +16°C° 0 mm 1 mps 740 mmHg 48%
    07:00 +16°C° 0 mm 1 mps 740 mmHg 48%
    08:00 +19°C° 0 mm 1 mps 740 mmHg 43%
    09:00 +22°C° 0 mm 1 mps 740 mmHg 38%
    10:00 +24°C° 0 mm 1 mps 740 mmHg 33%
    11:00 +25°C° 0 mm 1 mps 739 mmHg 33%
    12:00 +25°C° 0 mm 1 mps 739 mmHg 33%
    13:00 +26°C° 0 mm 2 mps 738 mmHg 33%
    14:00 +24°C° 0 mm 2 mps 738 mmHg 39%
    15:00 +23°C° 0 mm 1 mps 738 mmHg 46%
    16:00 +22°C° 0 mm 1 mps 738 mmHg 52%
    17:00 +20°C° 0 mm 1 mps 738 mmHg 55%
    18:00 +19°C° 0 mm 1 mps 738 mmHg 58%
    19:00 +18°C° 0 mm 1 mps 738 mmHg 61%
    20:00 +16°C° 0 mm 1 mps 738 mmHg 61%
    21:00 +16°C° 0 mm 1 mps 738 mmHg 61%
    22:00 +16°C° 0 mm 1 mps 738 mmHg 60%
    23:00 +15°C° 0 mm 1 mps 738 mmHg 59%

    29 October, Tuesday

    Time Temperature Precipitation Wind Pressure Humidity
    00:00 +15°C° 0 mm 1 mps 738 mmHg 59%
    01:00 +15°C° 0 mm 1 mps 738 mmHg 58%
    02:00 +15°C° 0 mm 1 mps 738 mmHg 58%
    03:00 +14°C° 0 mm 1 mps 738 mmHg 58%
    04:00 +14°C° 0 mm 1 mps 738 mmHg 58%
    05:00 +14°C° 0 mm 1 mps 738 mmHg 57%
    06:00 +15°C° 0 mm 1 mps 738 mmHg 56%
    07:00 +15°C° 0 mm 1 mps 738 mmHg 54%
    08:00 +18°C° 0 mm 1 mps 738 mmHg 49%
    09:00 +20°C° 0 mm 1 mps 738 mmHg 44%
    10:00 +22°C° 0 mm 1 mps 738 mmHg 38%
    11:00 +23°C° 0 mm 1 mps 738 mmHg 38%
    12:00 +23°C° 0 mm 2 mps 738 mmHg 38%
    13:00 +23°C° 0 mm 2 mps 738 mmHg 38%
    14:00 +21°C° 0 mm 2 mps 737 mmHg 44%
    15:00 +21°C° 0 mm 1 mps 737 mmHg 51%
    16:00 +20°C° 0 mm 1 mps 737 mmHg 57%
    17:00 +19°C° 0 mm 1 mps 737 mmHg 61%
    18:00 +16°C° 0 mm 1 mps 737 mmHg 64%
    19:00 +15°C° 0 mm 1 mps 738 mmHg 68%
    20:00 +15°C° 0 mm 1 mps 738 mmHg 66%
    21:00 +15°C° 0 mm 1 mps 738 mmHg 64%
    22:00 +14°C° 0 mm 1 mps 738 mmHg 62%
    23:00 +14°C° 0 mm 1 mps 738 mmHg 60%
    Show more